Location: Unspecified
(0.0000°N, 0.0000°E)
Time: 01:19:33
(UTC+00:00)

Courier 1B Rocket - All Passes

Search period start: 26 May 2019 00:00
Search period end: 05 June 2019 00:00
Orbit: 920 x 1202 km, 28.3° (Epoch: 25 May)

Date Brightness Start Highest point End Pass type
(mag) Time Alt. Az. Time Alt. Az. Time Alt. Az.
26 May - 00:48:01 10° W 00:54:04 32° SSW 00:59:48 10° SSE night (unlit)
26 May - 08:30:58 10° S 08:34:48 16° SSE 08:38:47 10° ESE daylight
26 May - 10:22:04 10° SW 10:28:36 58° SSE 10:35:38 10° ENE daylight
26 May - 12:15:46 10° W 12:22:18 42° NNW 12:29:18 10° NE daylight
26 May - 14:13:02 10° NW 14:16:50 14° NNW 14:20:44 10° N daylight
26 May - 20:00:18 10° NNW 20:04:52 17° NNE 20:09:18 10° ENE visible
26 May - 21:52:05 10° NW 21:59:16 49° NNE 22:05:59 10° ESE visible
26 May - 23:46:03 10° WNW 23:52:56 49° SSW 23:59:22 10° SE night (unlit)
27 May - 01:43:33 10° SW 01:46:50 14° SSW 01:50:02 10° S night (unlit)
27 May - 07:32:45 10° SSE 07:33:26 10° SSE 07:34:07 10° SSE daylight
27 May - 09:21:33 10° SW 09:27:29 37° SSE 09:33:48 10° E daylight
27 May - 11:14:22 10° WSW 11:21:03 62° NNW 11:28:15 10° NE daylight
27 May - 13:10:12 10° WNW 13:15:13 20° NNW 13:20:26 10° NNE daylight
27 May - 19:00:23 10° N 19:03:07 12° NNE 19:05:50 10° NE visible
27 May - 20:51:09 10° NW 20:57:56 34° NNE 21:04:22 10° E visible
27 May - 22:44:22 10° WNW 22:51:47 75° SSW 22:58:40 10° SE visible
28 May - 00:40:23 10° WSW 00:45:31 21° SSW 00:50:26 10° SSE night (unlit)
28 May - 08:21:17 10° SSW 08:26:21 24° SSE 08:31:36 10° E daylight
28 May - 10:13:19 10° WSW 10:19:55 88° SSE 10:27:01 10° ENE daylight
28 May - 12:07:59 10° W 12:13:45 28° NNW 12:19:51 10° NNE daylight
28 May - 19:50:25 10° NNW 19:56:27 24° NNE 20:02:17 10° ENE visible
28 May - 21:42:59 10° NW 21:50:34 75° NNE 21:57:40 10° ESE visible
28 May - 23:37:54 10° W 23:44:16 33° SSW 23:50:16 10° SSE night (unlit)
29 May - 07:21:27 10° S 07:25:07 16° SSE 07:28:51 10° ESE daylight
29 May - 09:12:32 10° SW 09:18:51 58° SSE 09:25:33 10° ENE daylight
29 May - 11:06:16 10° W 11:12:26 40° NNW 11:19:03 10° NE daylight
29 May - 13:03:42 10° NW 13:06:54 13° NNW 13:10:12 10° N daylight
29 May - 18:49:58 10° NNW 18:54:51 17° NNE 18:59:39 10° ENE visible
29 May - 20:41:49 10° NW 20:49:17 51° NNE 20:56:21 10° ESE visible
29 May - 22:35:51 10° WNW 22:43:03 49° SSW 22:49:48 10° SE visible
30 May - 00:33:25 10° WSW 00:37:04 15° SSW 00:40:37 10° S night (unlit)
30 May - 08:12:01 10° SW 08:17:47 37° SSE 08:23:49 10° E daylight
30 May - 10:04:53 10° WSW 10:11:16 59° NNW 10:18:05 10° NE daylight
30 May - 12:00:48 10° WNW 12:05:20 18° NNW 12:10:03 10° NNE daylight
30 May - 17:50:02 10° N 17:53:06 13° NNE 17:56:11 10° NE daylight
30 May - 19:40:53 10° NW 19:47:53 36° NNE 19:54:40 10° E visible
30 May - 21:34:09 10° WNW 21:41:50 74° SSW 21:49:02 10° SE visible
30 May - 23:30:13 10° WSW 23:35:41 22° SSW 23:40:54 10° SSE night (unlit)
31 May - 07:11:44 10° SSW 07:16:41 24° SSE 07:21:44 10° E daylight
31 May - 09:03:49 10° WSW 09:10:12 89° NNW 09:16:56 10° ENE daylight
31 May - 10:58:34 10° W 11:03:55 26° NNW 11:09:34 10° NNE daylight
31 May - 18:40:11 10° NNW 18:46:24 25° NNE 18:52:31 10° ENE visible
31 May - 20:32:44 10° NW 20:40:33 77° NNE 20:47:58 10° ESE visible
31 May - 22:27:42 10° W 22:34:21 33° SSW 22:40:40 10° SSE visible
01 Jun - 06:11:50 10° SSW 06:15:29 16° SSE 06:19:08 10° ESE daylight
01 Jun - 08:03:01 10° SW 08:09:10 59° SSE 08:15:35 10° ENE daylight
01 Jun - 09:56:49 10° W 10:02:41 37° NNW 10:08:53 10° NE daylight
01 Jun - 11:54:38 10° NW 11:57:03 12° NNW 11:59:33 10° N daylight
01 Jun - 17:39:48 10° NNW 17:44:48 18° NNE 17:49:48 10° ENE daylight
01 Jun - 19:31:36 10° NW 19:39:12 53° NNE 19:46:35 10° ESE visible
01 Jun - 21:25:38 10° WNW 21:33:04 49° SSW 21:40:07 10° SE visible
01 Jun - 23:23:10 10° WSW 23:27:13 15° SSW 23:31:09 10° S night (unlit)
02 Jun - 05:13:14 10° SSE 05:14:07 10° SSE 05:15:01 10° SSE visible
02 Jun - 07:02:26 10° SW 07:08:10 37° SSE 07:13:59 10° E daylight
02 Jun - 08:55:25 10° WSW 09:01:34 56° NNW 09:08:02 10° NE daylight
02 Jun - 10:51:30 10° WNW 10:55:32 17° NNW 10:59:43 10° NNE daylight
02 Jun - 16:39:57 10° N 16:43:05 13° NNE 16:46:13 10° NE daylight
02 Jun - 18:30:42 10° NW 18:37:47 37° NNE 18:44:49 10° E visible
02 Jun - 20:23:57 10° WNW 20:31:46 73° SSW 20:39:16 10° SE visible
02 Jun - 22:20:01 10° WSW 22:25:45 23° SSW 22:31:17 10° SSE visible
03 Jun - 06:02:05 10° SSW 06:07:04 24° SSE 06:12:03 10° E daylight
03 Jun - 07:54:18 10° WSW 08:00:33 87° NNW 08:07:01 10° ENE daylight
03 Jun - 09:49:12 10° WNW 09:54:11 24° NNW 09:59:24 10° NNE daylight
03 Jun - 17:30:05 10° NNW 17:36:18 26° NNE 17:42:34 10° E daylight
03 Jun - 19:22:34 10° NW 19:30:26 79° NNE 19:38:07 10° ESE visible
03 Jun - 21:17:30 10° W 21:24:21 34° SSW 21:30:57 10° SSE visible
03 Jun - 23:17:34 10° SSW 23:18:55 11° SSW 23:20:16 10° S night (unlit)
04 Jun - 05:02:01 10° SSW 05:05:51 16° SSE 05:09:38 10° ESE visible
04 Jun - 06:53:25 10° SW 06:59:34 60° SSE 07:05:47 10° ENE daylight
04 Jun - 08:47:22 10° W 08:53:00 35° NNW 08:58:52 10° NE daylight
04 Jun - 10:45:56 10° NNW 10:47:18 11° NNW 10:48:41 10° N daylight
04 Jun - 16:29:48 10° NNW 16:34:45 18° NNE 16:39:46 10° ENE daylight
04 Jun - 18:21:29 10° NW 18:29:03 55° NNE 18:36:39 10° ESE visible
04 Jun - 20:15:28 10° WNW 20:22:59 49° SSW 20:30:18 10° SE visible
04 Jun - 22:12:55 10° WSW 22:17:17 16° SSW 22:21:34 10° SSE visible
